Weather History for KLXN - July, 2013

Change the Weather History Date:

Tuesday, July 30, 2013

  Actual Average Record
Temperature  
Mean Temperature 72 °F -  
Max Temperature 81 °F 84 °F 102 °F (2002)
Min Temperature 63 °F 61 °F 55 °F (2000)
Cooling Degree Days 7    
Growing Degree Days 22 (Base 50)    
Moisture  
Dew Point 65 °F    
Average Humidity 84    
Maximum Humidity 97    
Minimum Humidity 59    
Precipitation  
Precipitation 0.00 in - - ()
Sea Level Pressure  
Sea Level Pressure 30.12 in    
Wind  
Wind Speed 3 mph (East)    
Max Wind Speed 16 mph    
Max Gust Speed 25 mph    
Visibility 6 miles    
Events Fog , Rain    
Averages and records for this station are not official NWS values.
T = Trace of Precipitation, MM = Missing Value Source: NWS Daily Summary

Daily Weather History Graph

Daily Weather History Graph

Search for Another Location

Airport or City:

Trip Planner

Search our weather history database for the weather conditions in past years. The results will help you decide how hot, cold, wet, or windy it might be!

Date:

Astronomy

Jul. 30, 2013 Rise Set
Actual Time 6:33 AM CDT 8:56 PM CDT
Civil Twilight 6:03 AM CDT 9:27 PM CDT
Nautical Twilight 5:24 AM CDT 10:05 PM CDT
Astronomical Twilight 4:42 AM CDT 10:47 PM CDT
Moon 12:53 AM CDT 3:18 PM CDT
Length of Visible Light 15h 24m
Length of Day
14h 22m
Last Quarter, 41% of the Moon is Illuminated
Jul 30
Last Quarter
Aug 6
New
Aug 14
First Quarter
Aug 20
Full
Aug 28
Last Quarter

Hourly Weather History & Observations

Time (CDT) Temp. Heat Index Dew Point Humidity Pressure Visibility Wind Dir Wind Speed Gust Speed Precip Events Conditions
12:15 AM 64.4 °F - 63.1 °F 96% 30.06 in 3.0 mi SE 3.5 mph - N/A   Mostly Cloudy
12:35 AM 64.9 °F - 63.9 °F 96% 30.06 in 2.5 mi East 3.5 mph - N/A   Overcast
12:55 AM 64.8 °F - 63.7 °F 96% 30.07 in 3.0 mi East 3.5 mph - N/A   Overcast
1:15 AM 65.1 °F - 64.0 °F 96% 30.08 in 3.0 mi Calm Calm - N/A   Overcast
1:35 AM 64.6 °F - 63.5 °F 96% 30.09 in 2.0 mi SE 3.5 mph - N/A   Overcast
1:55 AM 64.6 °F - 63.5 °F 96% 30.10 in 0.8 mi Calm Calm - N/A   Overcast
2:15 AM 64.4 °F - 63.5 °F 97% 30.09 in 1.0 mi Calm Calm - N/A   Overcast
2:35 AM 64.4 °F - 63.5 °F 97% 30.08 in 2.0 mi Calm Calm - N/A   Overcast
2:55 AM 64.4 °F - 63.5 °F 97% 30.08 in 2.0 mi Calm Calm - N/A   Overcast
3:15 AM 64.6 °F - 63.7 °F 97% 30.08 in 2.5 mi Calm Calm - N/A   Overcast
3:35 AM 64.6 °F - 63.7 °F 97% 30.08 in 2.5 mi Calm Calm - N/A   Overcast
3:55 AM 64.8 °F - 63.9 °F 97% 30.10 in 2.5 mi Calm Calm - N/A   Overcast
4:15 AM 64.8 °F - 63.9 °F 97% 30.10 in 2.5 mi Calm Calm - N/A   Overcast
4:35 AM 64.8 °F - 63.9 °F 97% 30.10 in 2.5 mi Calm Calm - N/A   Overcast
4:55 AM 64.8 °F - 63.9 °F 97% 30.11 in 2.5 mi NW 3.5 mph - N/A   Overcast
5:15 AM 64.6 °F - 63.7 °F 97% 30.11 in 2.5 mi NW 4.6 mph - N/A   Overcast
5:35 AM 64.4 °F - 63.5 °F 97% 30.11 in 2.0 mi WNW 3.5 mph - N/A   Overcast
5:55 AM 64.4 °F - 63.5 °F 97% 30.11 in 2.0 mi WNW 3.5 mph - N/A   Overcast
6:15 AM 64.4 °F - 63.5 °F 97% 30.11 in 2.5 mi WNW 3.5 mph - N/A   Overcast
6:35 AM 64.4 °F - 63.5 °F 97% 30.12 in 2.5 mi Calm Calm - N/A   Overcast
6:55 AM 64.4 °F - 63.5 °F 97% 30.12 in 1.8 mi NW 3.5 mph - N/A   Overcast
7:15 AM 64.4 °F - 63.5 °F 97% 30.12 in 1.5 mi NNW 4.6 mph - N/A   Overcast
7:35 AM 64.4 °F - 63.1 °F 96% 30.12 in 2.0 mi NW 3.5 mph - N/A   Overcast
7:55 AM 64.4 °F - 63.1 °F 96% 30.12 in 1.2 mi NNW 3.5 mph - N/A   Overcast
8:15 AM 63.9 °F - 62.8 °F 96% 30.12 in 0.5 mi NW 6.9 mph - N/A Fog Fog
8:35 AM 63.1 °F - 62.2 °F 97% 30.12 in 1.8 mi NNW 5.8 mph - N/A   Overcast
8:55 AM 63.1 °F - 62.1 °F 96% 30.13 in 3.0 mi NNW 3.5 mph - N/A   Overcast
9:15 AM 63.1 °F - 61.9 °F 96% 30.13 in 3.0 mi Calm Calm - N/A   Overcast
9:35 AM 63.5 °F - 62.2 °F 96% 30.13 in 3.0 mi Calm Calm - N/A   Overcast
9:55 AM 64.4 °F - 62.6 °F 94% 30.15 in 3.0 mi Calm Calm - N/A   Overcast
10:15 AM 64.4 °F - 62.6 °F 94% 30.15 in 3.0 mi Calm Calm - N/A   Overcast
10:35 AM 64.9 °F - 63.0 °F 93% 30.15 in 3.0 mi Calm Calm - N/A   Overcast
10:55 AM 65.5 °F - 63.3 °F 93% 30.14 in 3.0 mi Calm Calm - N/A   Overcast
11:15 AM 66.6 °F - 63.7 °F 90% 30.14 in 3.0 mi Calm Calm - N/A   Overcast
11:55 AM 69.8 °F - 64.9 °F 84% 30.14 in 4.0 mi Calm Calm - N/A   Haze
12:15 PM 70.9 °F - 65.1 °F 82% 30.15 in 5.0 mi Calm Calm - N/A   Haze
12:35 PM 73.0 °F - 65.5 °F 77% 30.14 in 7.0 mi Calm Calm - N/A   Overcast
1:15 PM 74.8 °F - 66.0 °F 74% 30.14 in 7.0 mi NNE 4.6 mph - N/A   Scattered Clouds
1:35 PM 75.4 °F - 66.2 °F 73% 30.13 in 10.0 mi Calm Calm - N/A   Clear
1:55 PM 76.6 °F - 66.0 °F 70% 30.13 in 10.0 mi Calm Calm - N/A   Scattered Clouds
2:15 PM 76.6 °F - 65.5 °F 68% 30.13 in 10.0 mi NNE 4.6 mph - N/A   Scattered Clouds
2:35 PM 78.1 °F - 66.0 °F 66% 30.13 in 10.0 mi ENE 5.8 mph - N/A   Scattered Clouds
2:55 PM 78.8 °F - 65.8 °F 64% 30.12 in 10.0 mi ENE 3.5 mph - N/A   Clear
3:15 PM 79.2 °F - 66.7 °F 66% 30.12 in 10.0 mi ENE 6.9 mph - N/A   Clear
3:35 PM 80.2 °F 82.5 °F 66.4 °F 63% 30.12 in 10.0 mi Calm Calm - N/A   Clear
3:55 PM 80.8 °F 82.8 °F 65.8 °F 60% 30.11 in 10.0 mi East 6.9 mph - N/A   Clear
4:15 PM 80.8 °F 82.6 °F 65.1 °F 59% 30.11 in 10.0 mi NE 5.8 mph - N/A   Clear
4:35 PM 81.5 °F 83.9 °F 66.9 °F 61% 30.10 in 10.0 mi ESE 8.1 mph - N/A   Clear
4:55 PM 81.3 °F 83.6 °F 66.9 °F 61% 30.10 in 10.0 mi SSE 3.5 mph - N/A   Clear
5:15 PM 81.0 °F 83.2 °F 66.6 °F 61% 30.09 in 10.0 mi ESE 6.9 mph - N/A   Clear
5:35 PM 80.8 °F 82.8 °F 65.7 °F 60% 30.08 in 10.0 mi East 4.6 mph - N/A   Clear
5:55 PM 81.5 °F 83.9 °F 66.9 °F 61% 30.07 in 10.0 mi SSE 6.9 mph - N/A   Clear
6:15 PM 80.8 °F 83.2 °F 66.9 °F 63% 30.07 in 10.0 mi SE 8.1 mph - N/A   Clear
6:35 PM 80.4 °F 83.0 °F 67.5 °F 65% 30.08 in 10.0 mi SSE 10.4 mph - N/A   Clear
6:55 PM 79.7 °F - 67.1 °F 65% 30.08 in 10.0 mi SSE 8.1 mph - N/A   Clear
7:15 PM 78.8 °F - 66.9 °F 67% 30.08 in 10.0 mi SE 8.1 mph - N/A   Clear
7:35 PM 78.1 °F - 66.9 °F 68% 30.08 in 10.0 mi SE 9.2 mph - N/A   Clear
7:55 PM 77.0 °F - 66.7 °F 70% 30.09 in 10.0 mi SE 9.2 mph - N/A   Clear
8:15 PM 75.9 °F - 67.1 °F 74% 30.10 in 10.0 mi ESE 10.4 mph - N/A   Clear
8:35 PM 74.5 °F - 67.1 °F 78% 30.10 in 10.0 mi ESE 9.2 mph - N/A   Clear
8:55 PM 73.2 °F - 67.1 °F 81% 30.11 in 10.0 mi ESE 6.9 mph - N/A   Clear
9:15 PM 72.5 °F - 66.7 °F 82% 30.11 in 10.0 mi ESE 9.2 mph - N/A   Clear
9:35 PM 72.0 °F - 66.6 °F 83% 30.13 in 10.0 mi SE 9.2 mph - N/A   Clear
9:55 PM 71.1 °F - 66.4 °F 85% 30.13 in 10.0 mi ESE 10.4 mph - N/A   Clear
10:15 PM 70.5 °F - 66.4 °F 87% 30.17 in 10.0 mi East 10.4 mph - N/A   Mostly Cloudy
10:35 PM 69.8 °F - 66.2 °F 88% 30.17 in 10.0 mi SE 16.1 mph - N/A Rain Light Rain
10:55 PM 69.8 °F - 65.8 °F 87% 30.21 in 10.0 mi NE 10.4 mph 21.9 mph N/A   Scattered Clouds
11:15 PM 69.8 °F - 65.8 °F 87% 30.24 in 7.0 mi NNE 13.8 mph 25.3 mph N/A   Mostly Cloudy
11:35 PM 68.9 °F - 65.5 °F 89% 30.22 in 7.0 mi ENE 9.2 mph 19.6 mph N/A Rain Light Rain
11:55 PM 68.4 °F - 65.5 °F 90% 30.20 in 7.0 mi East 8.1 mph - N/A   Clear